Location: G�ppingen
(48.7089°N, 9.6563°E)
Time: 01:34:19
(UTC+01:00)

ISS - Pass Details

Date: 28 October 2019
Orbit: 412 x 421 km, 51.6° (Epoch: 18 November)

Event Time Altitude Azimuth Distance (km) Brightness Sun altitude
Exits shadow 05:42:53 16° 229° (SW) 1,199 -1.9 -13.4°
Maximum altitude 05:45:27 59° 152° (SSE) 493 -3.3 -13.0°
Drops below altitude 10° 05:48:47 10° 73° (ENE) 1,509 0.2 -12.4°
Sets 05:50:54 0° 69° (ENE) 2,374 1.3 -12.1°
